NKS1 KPIT-KMYR

Flight info

Callsign NKS1
Flight time N/A
Altitude 33000
Route CKB ROA SBV RDU
Aircraft A321/M-SDE3FGHIRWY/LB1

Departure

Time N/A
Airport Pittsburgh International Airport (KPIT)

Arrival

Time 2026-04-24 02:44
Airport Myrtle Beach International Airport (KMYR)
Time Latitude Longitude Altitude Speed Heading
2026-04-24 02:31 34.55083 -78.80913 15319 ft 364 kts 192°
2026-04-24 02:31 34.52621 -78.81519 14811 ft 357 kts 192°
2026-04-24 02:32 34.50253 -78.82105 14305 ft 339 kts 192°
2026-04-24 02:32 34.47926 -78.82681 13826 ft 342 kts 192°
2026-04-24 02:32 34.45593 -78.83255 13288 ft 342 kts 192°
2026-04-24 02:32 34.43277 -78.83825 12826 ft 334 kts 193°
2026-04-24 02:33 34.41075 -78.84365 12655 ft 315 kts 193°
2026-04-24 02:33 34.38982 -78.84879 12336 ft 300 kts 193°
2026-04-24 02:33 34.36953 -78.85378 11666 ft 295 kts 193°
2026-04-24 02:33 34.34949 -78.85872 11024 ft 293 kts 194°
2026-04-24 02:34 34.32950 -78.86367 10800 ft 294 kts 194°
2026-04-24 02:34 34.30959 -78.86859 10727 ft 298 kts 193°
2026-04-24 02:34 34.28934 -78.87356 10589 ft 296 kts 193°
2026-04-24 02:34 34.26916 -78.87850 10472 ft 296 kts 193°
2026-04-24 02:35 34.24896 -78.88343 10335 ft 296 kts 194°
2026-04-24 02:35 34.22878 -78.88837 10196 ft 296 kts 194°
2026-04-24 02:35 34.20862 -78.89333 10067 ft 296 kts 194°
2026-04-24 02:35 34.18831 -78.89832 9634 ft 302 kts 194°
2026-04-24 02:36 34.16777 -78.90334 9381 ft 297 kts 193°
2026-04-24 02:36 34.14784 -78.90819 8842 ft 289 kts 193°
2026-04-24 02:36 34.12824 -78.91294 8296 ft 282 kts 194°
2026-04-24 02:36 34.10924 -78.91755 7609 ft 280 kts 193°
2026-04-24 02:37 34.09012 -78.92221 7169 ft 283 kts 194°
2026-04-24 02:37 34.07064 -78.92696 6709 ft 289 kts 193°
2026-04-24 02:37 34.05132 -78.93166 6477 ft 285 kts 194°
2026-04-24 02:37 34.03204 -78.93636 6038 ft 281 kts 193°
2026-04-24 02:38 34.01301 -78.94100 5411 ft 277 kts 194°
2026-04-24 02:38 33.99428 -78.94556 4828 ft 271 kts 194°
2026-04-24 02:38 33.97583 -78.95006 4380 ft 272 kts 193°
2026-04-24 02:38 33.95739 -78.95456 4136 ft 269 kts 194°
2026-04-24 02:39 33.93961 -78.95885 4001 ft 249 kts 194°
2026-04-24 02:39 33.92351 -78.96271 3928 ft 222 kts 193°
2026-04-24 02:39 33.90887 -78.96622 3844 ft 212 kts 196°
2026-04-24 02:39 33.89457 -78.96970 3731 ft 208 kts 195°
2026-04-24 02:40 33.88054 -78.97314 3625 ft 203 kts 194°
2026-04-24 02:40 33.86623 -78.97472 3448 ft 212 kts 177°
2026-04-24 02:40 33.85153 -78.97150 3167 ft 214 kts 171°
2026-04-24 02:40 33.83711 -78.96776 2889 ft 209 kts 172°
2026-04-24 02:41 33.82279 -78.96412 2632 ft 213 kts 171°
2026-04-24 02:41 33.80815 -78.96045 2354 ft 216 kts 173°
2026-04-24 02:41 33.79417 -78.95692 2106 ft 199 kts 172°
2026-04-24 02:41 33.78104 -78.95363 1823 ft 188 kts 172°
2026-04-24 02:42 33.76874 -78.95056 1586 ft 173 kts 172°
2026-04-24 02:42 33.75743 -78.94773 1377 ft 157 kts 173°
2026-04-24 02:42 33.74708 -78.94513 1162 ft 147 kts 173°
2026-04-24 02:42 33.73720 -78.94267 966 ft 145 kts 173°
2026-04-24 02:43 33.72731 -78.94021 786 ft 147 kts 172°
2026-04-24 02:43 33.71729 -78.93759 574 ft 148 kts 169°
2026-04-24 02:43 33.70771 -78.93498 378 ft 137 kts 172°
2026-04-24 02:43 33.69833 -78.93287 206 ft 136 kts 172°
2026-04-24 02:44 33.68894 -78.93059 64 ft 136 kts 170°
2026-04-24 02:44 33.67983 -78.92825 33 ft 123 kts 169°
2026-04-24 02:44 33.67433 -78.92689 32 ft 46 kts 169°
2026-04-24 02:44 33.67294 -78.92584 32 ft 15 kts 81°
2026-04-24 02:45 33.67307 -78.92547 32 ft 0 kts 70°
2026-04-24 02:45 33.67314 -78.92525 32 ft 13 kts 69°
2026-04-24 02:45 33.67422 -78.92496 32 ft 19 kts 351°
2026-04-24 02:45 33.67557 -78.92525 32 ft 21 kts 348°
2026-04-24 02:46 33.67702 -78.92560 32 ft 22 kts 348°
2026-04-24 02:46 33.67840 -78.92592 32 ft 17 kts
2026-04-24 02:46 33.67913 -78.92490 30 ft 16 kts 44°
2026-04-24 02:46 33.67968 -78.92435 32 ft 0 kts 39°